Powrót do katalogu

STARLINK-1329

AktywnyŁącznośćVLEO
NORAD 45531·PAYLOAD·🇺🇸 United States

Wystrzelony Apr 22, 2020 z Cape Canaveral Space Force Station

Loading…

Następne Przeloty (najbliższe 24 godziny)

TLE

ŚwieżeSource: CelesTrak SupGP

Epoka: Sep 15, 2026, 02:35 UTC

1 45531C 20025A   26258.10812500  .00212440  00000+0  56617-3 0  2585
2 45531  53.0316 218.0429 0004536  82.8666  17.4774 15.93696548    15

Śledź STARLINK-1329 w czasie rzeczywistym z AllMySat

Download on the App Store